Regional Weather Roundup
Issued by NWS

Home | Current Version | Previous Version | Text Only | Print | Product List | Glossary On
Versions: 1 2 3 4 5 6 7 8 9 10 11 12 13 14 15 16 17 18 19 20 21 22 23 24 25 26 27 28 29 30 31 32 33 34 35 36 37 38 39 40 41 42 43 44 45 46 47 48 49 50
000
ASUS43 KTOP 052159
RWRKS

WEATHER ROUNDUP FOR KANSAS
NATIONAL WEATHER SERVICE GOODLAND KS
500 PM CDT TUE MAY 05 2015

NOTE:  "FAIR" INDICATES FEW OR NO CLOUDS BELOW 12,000 FEET WITH NO
SIGNIFICANT WEATHER AND/OR OBSTRUCTIONS TO VISIBILITY.

KSZ001>006-013>018-027>032-041>047-052300-
NORTHWEST KANSAS

CITY           SKY/WX    TMP DP  RH WIND       PRES   REMARKS
GOODLAND       LGT RAIN  57  55  93 SE25G40   29.82F FOG
HAYS           CLOUDY    64  52  63 SE20G26   29.90F
HILL CITY      LGT RAIN  66  52  60 SE24G32   29.89F
RUSSELL        LGT RAIN  65  57  75 SE16      29.90F
$$

KSZ061>065-074>080-084>089-052300-
SOUTHWEST KANSAS

CITY           SKY/WX    TMP DP  RH WIND       PRES   REMARKS
DODGE CITY     RAIN      59  56  89 SE15      29.85F FOG
ELKHART          N/A     66  51  58 S15         N/A
GARDEN CITY    LGT RAIN  58  57  97 SE22G32   29.81F
GREAT BEND     CLOUDY    63  55  77 SE17      29.90F
LIBERAL        CLOUDY    63  57  82 S21G26    29.82F
$$

KSZ066>073-081>083-090>101-052300-
SOUTHEAST KANSAS

CITY           SKY/WX    TMP DP  RH WIND       PRES   REMARKS
CHANUTE        LGT RAIN  66  63  90 S14G23    30.00S
COFFEYVILLE    CLOUDY    69  64  84 S10       29.99F
HUTCHINSON     CLOUDY    71  52  50 S17       29.93F
MEDICINE LODGE   N/A     63  61  93 SE18G31   29.89F
NEWTON         CLOUDY    72  50  46 S15G23    29.97F
PARSONS        LGT RAIN  69  66  90 S6        30.00F
WICHITA INTL   CLOUDY    73  48  41 S18G26    29.93F
WICHITA JABRA  CLOUDY    73  52  47 S21       29.94F
WINFIELD       CLOUDY    73  53  49 SE17G25   29.96F
$$

KSZ007>012-019>026-033>040-048>060-102>105-052300-
NORTHEAST KANSAS

CITY           SKY/WX    TMP DP  RH WIND       PRES   REMARKS
CONCORDIA      PTSUNNY   74  52  46 SE20      29.93F
EMPORIA        MOSUNNY   79  58  48 S22G30    29.96F
LAWRENCE       CLOUDY    80  56  43 S15G22    29.99F
MANHATTAN      MOSUNNY   79  56  45 S18G26    29.94F
OLATHE IND     CLOUDY    81  57  43 S12       30.01F
OLATHE EXE     CLOUDY    79  59  50 S9        30.01F
SALINA         CLOUDY    74  53  48 S20G25    29.93F
TOPEKA BILLARD PTSUNNY   80  57  45 S15       29.98F
TOPEKA FORBES  PTSUNNY   81  57  43 SE15      29.97F
$$


USA.gov is the U.S. government's official web portal to all federal, state and local government web resources and services.